Weather History for Provincetown, MA

Change the Weather History Date:

Friday, March 15, 2013

  Actual Average Record
Temperature  
Mean Temperature 31 °F -  
Max Temperature 39 °F 39 °F 53 °F (2002)
Min Temperature 23 °F 29 °F 21 °F (2011)
Degree Days  
Heating Degree Days 34    
Moisture  
Dew Point 15 °F    
Average Humidity 53    
Maximum Humidity 70    
Minimum Humidity 33    
Precipitation  
Precipitation 0.00 in - - ()
Sea Level Pressure  
Sea Level Pressure 29.76 in    
Wind  
Wind Speed 22 mph (West)    
Max Wind Speed 30 mph    
Max Gust Speed 39 mph    
Visibility 10 miles    
Events      
Averages and records for this station are not official NWS values.
T = Trace of Precipitation, MM = Missing Value Source: NWS Daily Summary

Daily Weather History Graph

Daily Weather History Graph

Search for Another Location

Airport:

Trip Planner

Search our weather history database for the weather conditions in past years. The results will help you decide how hot, cold, wet, or windy it might be!

Date:

Astronomy

Mar. 15, 2013 Rise Set
Actual Time 6:52 AM EDT 6:47 PM EDT
Civil Twilight 6:24 AM EDT 7:15 PM EDT
Nautical Twilight 5:52 AM EDT 7:48 PM EDT
Astronomical Twilight 5:19 AM EDT 8:21 PM EDT
Moon 8:36 AM EDT (3/15) 11:03 PM EDT (3/15)
Length of Visible Light 12h 50m
Length of Day
11h 55m
Waxing Crescent, 15% of the Moon is Illuminated
Mar 15
Waxing Crescent
Mar 19
First Quarter
Mar 27
Full
Apr 3
Last Quarter
Apr 10
New

Hourly Weather History & Observations

Time (EDT) Temp. Windchill Dew Point Humidity Pressure Visibility Wind Dir Wind Speed Gust Speed Precip Events Conditions
12:55 AM 26.6 °F 11.4 °F 8.6 °F 47% 29.81 in 9.0 mi NW 25.3 mph 36.8 mph N/A   Scattered Clouds
1:15 AM 26.6 °F 10.3 °F 10.4 °F 51% 29.81 in 10.0 mi NW 29.9 mph 36.8 mph N/A   Mostly Cloudy
1:35 AM 26.6 °F 12.0 °F 10.4 °F 51% 29.81 in 10.0 mi NW 23.0 mph 35.7 mph N/A   Overcast
1:55 AM 24.8 °F 10.0 °F 8.6 °F 50% 29.82 in 10.0 mi NW 21.9 mph 38.0 mph N/A   Overcast
2:15 AM 24.8 °F 9.6 °F 10.4 °F 54% 29.82 in 10.0 mi NW 23.0 mph 32.2 mph N/A   Overcast
2:35 AM 24.8 °F 8.4 °F 12.2 °F 59% 29.82 in 10.0 mi NW 27.6 mph 38.0 mph N/A   Overcast
2:55 AM 24.8 °F 8.4 °F 10.4 °F 54% 29.82 in 10.0 mi NW 27.6 mph 39.1 mph N/A   Overcast
3:35 AM 24.8 °F 8.4 °F 10.4 °F 54% 29.81 in 10.0 mi NW 27.6 mph 35.7 mph N/A   Overcast
3:55 AM 24.8 °F 8.1 °F 10.4 °F 54% 29.81 in 10.0 mi NW 28.8 mph 35.7 mph N/A   Overcast
4:15 AM 24.8 °F 8.7 °F 10.4 °F 54% 29.81 in 10.0 mi NW 26.5 mph 36.8 mph N/A   Overcast
4:35 AM 24.8 °F 8.4 °F 10.4 °F 54% 29.81 in 10.0 mi NW 27.6 mph 35.7 mph N/A   Overcast
4:55 AM 24.8 °F 8.1 °F 10.4 °F 54% 29.82 in 10.0 mi NW 28.8 mph 35.7 mph N/A   Overcast
5:15 AM 24.8 °F 9.6 °F 10.4 °F 54% 29.82 in 10.0 mi NW 23.0 mph 33.4 mph N/A   Overcast
5:35 AM 24.8 °F 9.6 °F 8.6 °F 50% 29.83 in 10.0 mi NW 23.0 mph 32.2 mph N/A   Overcast
6:15 AM 23.0 °F 6.3 °F 10.4 °F 59% 29.84 in 10.0 mi NW 26.5 mph 35.7 mph N/A   Overcast
6:35 AM 23.0 °F 6.0 °F 8.6 °F 54% 29.84 in 10.0 mi NW 27.6 mph 38.0 mph N/A   Mostly Cloudy
6:55 AM 23.0 °F 7.6 °F 10.4 °F 59% 29.85 in 10.0 mi NW 21.9 mph 33.4 mph N/A   Overcast
7:15 AM - - - N/A% 29.85 in 10.0 mi NW 23.0 mph 35.7 mph N/A   Overcast
7:35 AM 23.0 °F 8.0 °F 10.4 °F 59% 29.86 in 10.0 mi NW 20.7 mph 31.1 mph N/A   Overcast
8:35 AM 24.8 °F 10.0 °F 10.4 °F 54% 29.86 in 10.0 mi NW 21.9 mph 31.1 mph N/A   Mostly Cloudy
8:55 AM 24.8 °F 10.3 °F 10.4 °F 54% 29.86 in 10.0 mi NW 20.7 mph 29.9 mph N/A   Mostly Cloudy
9:15 AM 24.8 °F 10.7 °F 10.4 °F 54% 29.86 in 10.0 mi NW 19.6 mph 28.8 mph N/A   Mostly Cloudy
9:35 AM 24.8 °F 10.7 °F 12.2 °F 59% 29.86 in 10.0 mi NW 19.6 mph 26.5 mph N/A   Mostly Cloudy
9:55 AM 24.8 °F 10.3 °F 10.4 °F 54% 29.85 in 10.0 mi WNW 20.7 mph 25.3 mph N/A   Mostly Cloudy
10:15 AM 26.6 °F 13.1 °F 10.4 °F 51% 29.85 in 10.0 mi WNW 19.6 mph 25.3 mph N/A   Mostly Cloudy
10:35 AM 26.6 °F 13.4 °F 12.2 °F 55% 29.85 in 10.0 mi WNW 18.4 mph 26.5 mph N/A   Scattered Clouds
11:15 AM 28.4 °F 17.0 °F 12.2 °F 51% 29.84 in 10.0 mi WNW 15.0 mph 25.3 mph N/A   Clear
11:35 AM 28.4 °F 16.6 °F 12.2 °F 51% 29.83 in 10.0 mi WNW 16.1 mph 24.2 mph N/A   Clear
11:55 AM 28.4 °F 16.2 °F 12.2 °F 51% 29.83 in 10.0 mi WNW 17.3 mph 24.2 mph N/A   Clear
12:15 PM 30.2 °F 19.3 °F 12.2 °F 47% 29.82 in 10.0 mi WNW 15.0 mph 24.2 mph N/A   Clear
12:35 PM 30.2 °F 18.5 °F 12.2 °F 47% 29.81 in 10.0 mi WNW 17.3 mph 21.9 mph N/A   Clear
12:55 PM 32.0 °F 21.6 °F 12.2 °F 44% 29.80 in 10.0 mi WNW 15.0 mph - N/A   Clear
1:15 PM 33.8 °F 24.3 °F 10.4 °F 38% 29.79 in 10.0 mi West 13.8 mph - N/A   Clear
1:35 PM 33.8 °F 24.3 °F 10.4 °F 38% 29.78 in 10.0 mi West 13.8 mph 19.6 mph N/A   Clear
1:55 PM 33.8 °F 24.3 °F 10.4 °F 38% 29.77 in 10.0 mi West 13.8 mph - N/A   Partly Cloudy
2:15 PM 35.6 °F 26.2 °F 8.6 °F 33% 29.75 in 10.0 mi West 15.0 mph - N/A   Partly Cloudy
2:35 PM 35.6 °F 28.6 °F 10.4 °F 35% 29.74 in 10.0 mi West 9.2 mph - N/A   Partly Cloudy
2:55 PM 35.6 °F 28.0 °F 10.4 °F 35% 29.73 in 10.0 mi West 10.4 mph - N/A   Partly Cloudy
3:15 PM 37.4 °F 30.3 °F 12.2 °F 36% 29.72 in 10.0 mi SSW 10.4 mph - N/A   Clear
3:55 PM 37.4 °F 30.8 °F 10.4 °F 33% 29.70 in 10.0 mi South 9.2 mph - N/A   Partly Cloudy
4:15 PM 37.4 °F 32.1 °F 14.0 °F 38% 29.69 in 10.0 mi South 6.9 mph - N/A   Mostly Cloudy
4:35 PM 37.4 °F 27.8 °F 19.4 °F 48% 29.68 in 10.0 mi WSW 17.3 mph 23.0 mph N/A   Mostly Cloudy
4:55 PM 37.4 °F 27.2 °F 23.0 °F 56% 29.67 in 10.0 mi SW 19.6 mph 27.6 mph N/A   Clear
5:15 PM 37.4 °F 27.5 °F 24.8 °F 60% 29.67 in 10.0 mi SW 18.4 mph - N/A   Clear
5:35 PM 37.4 °F 27.5 °F 21.2 °F 52% 29.67 in 10.0 mi SW 18.4 mph 23.0 mph N/A   Clear
5:55 PM 37.4 °F 28.5 °F 21.2 °F 52% 29.67 in 10.0 mi WSW 15.0 mph 24.2 mph N/A   Clear
6:15 PM 37.4 °F 27.5 °F 21.2 °F 52% 29.66 in 10.0 mi SW 18.4 mph 23.0 mph N/A   Clear
6:35 PM 37.4 °F 27.8 °F 21.2 °F 52% 29.66 in 10.0 mi SW 17.3 mph 24.2 mph N/A   Clear
7:15 PM 37.4 °F 27.2 °F 24.8 °F 60% 29.66 in 10.0 mi WSW 19.6 mph 23.0 mph N/A   Clear
7:35 PM 39.2 °F 29.8 °F 21.2 °F 49% 29.67 in 10.0 mi West 18.4 mph 27.6 mph N/A   Mostly Cloudy
7:55 PM 37.4 °F 26.9 °F 24.8 °F 60% 29.67 in 10.0 mi West 20.7 mph 26.5 mph N/A   Overcast
8:15 PM 37.4 °F 28.2 °F 26.6 °F 65% 29.68 in 10.0 mi West 16.1 mph 21.9 mph N/A   Scattered Clouds
8:35 PM 37.4 °F 27.8 °F 26.6 °F 65% 29.67 in 10.0 mi WSW 17.3 mph 25.3 mph N/A   Clear
8:55 PM 37.4 °F 27.2 °F 24.8 °F 60% 29.67 in 10.0 mi WSW 19.6 mph 25.3 mph N/A   Partly Cloudy
9:15 PM 37.4 °F 27.2 °F 26.6 °F 65% 29.68 in 10.0 mi WSW 19.6 mph - N/A   Mostly Cloudy
9:55 PM 37.4 °F 27.2 °F 28.4 °F 70% 29.68 in 10.0 mi West 19.6 mph 27.6 mph N/A   Partly Cloudy
10:15 PM 37.4 °F 27.5 °F 28.4 °F 70% 29.67 in 10.0 mi WSW 18.4 mph 21.9 mph N/A   Clear
10:35 PM 37.4 °F 27.2 °F 28.4 °F 70% 29.67 in 10.0 mi WSW 19.6 mph 26.5 mph N/A   Clear
10:55 PM 37.4 °F 27.2 °F 28.4 °F 70% 29.67 in 10.0 mi WSW 19.6 mph 26.5 mph N/A   Clear
11:15 PM 37.4 °F 27.5 °F 28.4 °F 70% 29.67 in 10.0 mi West 18.4 mph 25.3 mph N/A   Clear
11:35 PM 37.4 °F 27.2 °F 28.4 °F 70% 29.67 in 10.0 mi West 19.6 mph 25.3 mph N/A   Mostly Cloudy